19-02-2022, 00:00:05,    265,    0.5,    1.3,   0.00,   0.00, 1006.4,   69.4, -999.0
19-02-2022, 00:00:15,    288,    1.1,    1.2,   0.00,   0.00, 1006.4,   69.2, -999.0
19-02-2022, 00:00:25,    287,    0.3,    1.4,   0.00,   0.00, 1006.4,   69.3, -999.0
19-02-2022, 00:00:35,    250,    1.2,    1.3,   0.00,   0.00, 1006.5,   69.3, -999.0
19-02-2022, 00:00:45,    238,    1.3,    1.3,   0.00,   0.00, 1006.5,   69.4, -999.0
19-02-2022, 00:00:55,    251,    3.7,    1.3,   0.00,   0.00, 1006.5,   69.6, -999.0
19-02-2022, 00:01:05,    265,    5.1,    1.2,   0.00,   0.00, 1006.6,   69.6, -999.0
19-02-2022, 00:01:15,    260,    4.6,    1.3,   0.00,   0.00, 1006.6,   69.7, -999.0
19-02-2022, 00:01:27,    237,    1.6,    1.4,   0.00,   0.00, 1006.5,   69.5, -999.0
19-02-2022, 00:01:35,    257,    1.6,    1.3,   0.00,   0.00, 1006.6,   69.4, -999.0
19-02-2022, 00:01:44,    262,    1.2,    1.3,   0.00,   0.00, 1006.6,   69.7, -999.0
19-02-2022, 00:01:55,    263,    4.0,    1.4,   0.00,   0.00, 1006.6,   69.8, -999.0
19-02-2022, 00:02:05,    242,    4.6,    1.3,   0.00,   0.00, 1006.6,   69.5, -999.0
19-02-2022, 00:02:14,    202,    5.6,    1.4,   0.00,   0.00, 1006.6,   69.6, -999.0
19-02-2022, 00:02:24,    293,    2.7,    1.4,   0.00,   0.00, 1006.6,   69.5, -999.0
19-02-2022, 00:02:34,    230,    3.1,    1.4,   0.00,   0.00, 1006.5,   69.5, -999.0
19-02-2022, 00:02:44,    216,    3.6,    1.4,   0.00,   0.00, 1006.5,   69.5, -999.0
19-02-2022, 00:02:54,    231,    1.9,    1.4,   0.00,   0.00, 1006.6,   69.4, -999.0
19-02-2022, 00:03:04,    254,    2.4,    1.4,   0.00,   0.00, 1006.5,   69.3, -999.0
19-02-2022, 00:03:14,    239,    2.8,    1.4,   0.00,   0.00, 1006.5,   69.4, -999.0
19-02-2022, 00:03:24,    226,    0.7,    1.4,   0.00,   0.00, 1006.6,   69.2, -999.0
19-02-2022, 00:03:34,    275,    1.9,    1.2,   0.00,   0.00, 1006.5,   69.3, -999.0
19-02-2022, 00:03:44,    297,    6.2,    1.4,   0.00,   0.00, 1006.6,   69.3, -999.0
19-02-2022, 00:03:54,    259,    5.9,    1.4,   0.00,   0.00, 1006.6,   69.2, -999.0
19-02-2022, 00:04:04,    271,    4.1,    1.3,   0.00,   0.00, 1006.6,   69.3, -999.0
19-02-2022, 00:04:14,    241,    2.6,    1.4,   0.00,   0.00, 1006.6,   69.2, -999.0
19-02-2022, 00:04:24,    268,    2.7,    1.4,   0.00,   0.00, 1006.6,   69.1, -999.0
19-02-2022, 00:04:34,    273,    1.7,    1.5,   0.00,   0.00, 1006.6,   69.1, -999.0
19-02-2022, 00:04:44,    223,    2.6,    1.4,   0.00,   0.00, 1006.6,   69.1, -999.0
19-02-2022, 00:04:54,    275,    1.0,    1.4,   0.00,   0.00, 1006.5,   69.0, -999.0
19-02-2022, 00:05:04,    262,    2.2,    1.4,   0.00,   0.00, 1006.6,   69.1, -999.0
19-02-2022, 00:05:13,    247,    1.1,    1.4,   0.00,   0.00, 1006.6,   69.0, -999.0
19-02-2022, 00:05:23,    246,    2.9,    1.4,   0.00,   0.00, 1006.5,   69.2, -999.0
19-02-2022, 00:05:34,    211,    1.4,    1.4,   0.00,   0.00, 1006.5,   69.2, -999.0
19-02-2022, 00:05:43,    309,    1.3,    1.4,   0.00,   0.00, 1006.6,   69.2, -999.0
19-02-2022, 00:05:53,    243,    1.8,    1.4,   0.00,   0.00, 1006.6,   69.1, -999.0
19-02-2022, 00:06:03,    268,    1.1,    1.4,   0.00,   0.00, 1006.5,   69.3, -999.0
19-02-2022, 00:06:13,    262,    0.1,    1.3,   0.00,   0.00, 1006.5,   68.8, -999.0
19-02-2022, 00:06:23,    251,    1.2,    1.4,   0.00,   0.00, 1006.6,   69.0, -999.0
19-02-2022, 00:06:33,    251,    1.3,    1.4,   0.00,   0.00, 1006.6,   69.1, -999.0
19-02-2022, 00:06:43,    253,    4.6,    1.4,   0.00,   0.00, 1006.6,   69.0, -999.0
19-02-2022, 00:06:53,    252,    4.4,    1.4,   0.00,   0.00, 1006.6,   69.0, -999.0
19-02-2022, 00:07:03,    227,    4.2,    1.3,   0.00,   0.00, 1006.6,   69.2, -999.0
19-02-2022, 00:07:13,    224,    3.9,    1.4,   0.00,   0.00, 1006.6,   69.3, -999.0
19-02-2022, 00:07:23,    234,    2.1,    1.5,   0.00,   0.00, 1006.6,   68.9, -999.0
19-02-2022, 00:07:33,    275,    4.1,    1.4,   0.00,   0.00, 1006.6,   69.0, -999.0
19-02-2022, 00:07:43,    257,    1.6,    1.4,   0.00,   0.00, 1006.5,   69.0, -999.0
19-02-2022, 00:07:52,    235,    1.3,    1.4,   0.00,   0.00, 1006.5,   69.2, -999.0
19-02-2022, 00:08:03,    194,    3.8,    1.4,   0.00,   0.00, 1006.5,   69.2, -999.0
19-02-2022, 00:08:13,    254,    3.0,    1.5,   0.00,   0.00, 1006.6,   69.2, -999.0
19-02-2022, 00:08:22,    232,    5.1,    1.4,   0.00,   0.00, 1006.5,   69.0, -999.0
19-02-2022, 00:08:32,    232,    3.1,    1.4,   0.00,   0.00, 1006.5,   68.9, -999.0
19-02-2022, 00:08:43,    235,    1.1,    1.4,   0.00,   0.00, 1006.5,   69.0, -999.0
19-02-2022, 00:08:52,    228,    3.5,    1.5,   0.00,   0.00, 1006.6,   69.0, -999.0
19-02-2022, 00:09:02,    259,    4.6,    1.4,   0.00,   0.00, 1006.6,   68.9, -999.0
19-02-2022, 00:09:13,    237,    3.5,    1.5,   0.00,   0.00, 1006.6,   68.9, -999.0
19-02-2022, 00:09:22,    216,    2.5,    1.5,   0.00,   0.00, 1006.6,   68.8, -999.0
19-02-2022, 00:09:32,    236,    4.4,    1.5,   0.00,   0.00, 1006.6,   68.7, -999.0
19-02-2022, 00:09:42,    249,    2.2,    1.4,   0.00,   0.00, 1006.6,   68.7, -999.0
19-02-2022, 00:09:52,    241,    3.2,    1.5,   0.00,   0.00, 1006.6,   68.6, -999.0
19-02-2022, 00:10:02,    260,    1.0,    1.5,   0.00,   0.00, 1006.6,   68.6, -999.0
19-02-2022, 00:10:12,    261,    0.1,    1.4,   0.00,   0.00, 1006.5,   68.3, -999.0
19-02-2022, 00:10:22,    202,    1.9,    1.4,   0.00,   0.00, 1006.6,   68.8, -999.0
19-02-2022, 00:10:32,    258,    2.5,    1.4,   0.00,   0.00, 1006.6,   68.7, -999.0
19-02-2022, 00:10:42,    263,    4.7,    1.4,   0.00,   0.00, 1006.6,   68.5, -999.0
19-02-2022, 00:10:52,    247,    5.1,    1.4,   0.00,   0.00, 1006.6,   68.5, -999.0
19-02-2022, 00:11:02,    242,    4.1,    1.4,   0.00,   0.00, 1006.6,   68.6, -999.0
19-02-2022, 00:11:12,    208,    3.3,    1.3,   0.00,   0.00, 1006.6,   68.6, -999.0
19-02-2022, 00:11:22,    233,    2.8,    1.4,   0.00,   0.00, 1006.6,   68.6, -999.0
19-02-2022, 00:11:31,    247,    4.9,    1.4,   0.00,   0.00, 1006.6,   68.6, -999.0
19-02-2022, 00:11:42,    264,    3.2,    1.5,   0.00,   0.00, 1006.6,   68.6, -999.0
19-02-2022, 00:11:52,    260,    1.9,    1.5,   0.00,   0.00, 1006.6,   68.5, -999.0
19-02-2022, 00:12:01,    266,    4.6,    1.4,   0.00,   0.00, 1006.6,   68.7, -999.0
19-02-2022, 00:12:11,    259,    3.0,    1.5,   0.00,   0.00, 1006.7,   68.8, -999.0
19-02-2022, 00:12:21,    255,    3.9,    1.4,   0.00,   0.00, 1006.7,   68.6, -999.0
19-02-2022, 00:12:31,    248,    4.7,    1.4,   0.00,   0.00, 1006.6,   68.4, -999.0
19-02-2022, 00:12:41,    235,    2.7,    1.4,   0.00,   0.00, 1006.7,   68.5, -999.0
19-02-2022, 00:12:51,    245,    2.9,    1.4,   0.00,   0.00, 1006.7,   68.5, -999.0
19-02-2022, 00:13:01,    236,    3.2,    1.4,   0.00,   0.00, 1006.7,   68.4, -999.0
19-02-2022, 00:13:11,    232,    2.8,    1.4,   0.00,   0.00, 1006.7,   68.4, -999.0
19-02-2022, 00:13:21,    259,    5.1,    1.4,   0.00,   0.00, 1006.7,   68.4, -999.0
19-02-2022, 00:13:31,    231,    5.1,    1.4,   0.00,   0.00, 1006.7,   68.5, -999.0
19-02-2022, 00:13:41,    233,    5.9,    1.4,   0.00,   0.00, 1006.7,   68.5, -999.0
19-02-2022, 00:13:51,    235,    6.0,    1.4,   0.00,   0.00, 1006.7,   68.5, -999.0
19-02-2022, 00:14:01,    224,    5.6,    1.4,   0.00,   0.00, 1006.6,   68.4, -999.0
19-02-2022, 00:14:11,    232,    4.3,    1.5,   0.00,   0.00, 1006.7,   68.6, -999.0
19-02-2022, 00:14:21,    258,    3.3,    1.5,   0.00,   0.00, 1006.7,   68.3, -999.0
19-02-2022, 00:14:31,    194,    2.9,    1.5,   0.00,   0.00, 1006.7,   68.5, -999.0
19-02-2022, 00:14:40,    231,    5.9,    1.5,   0.00,   0.00, 1006.7,   68.6, -999.0
19-02-2022, 00:14:51,    218,    4.2,    1.5,   0.00,   0.00, 1006.7,   68.3, -999.0
19-02-2022, 00:15:00,    235,    2.0,    1.5,   0.00,   0.00, 1006.7,   68.2, -999.0
19-02-2022, 00:15:10,    260,    2.2,    1.5,   0.00,   0.00, 1006.7,   68.2, -999.0
19-02-2022, 00:15:20,    230,    2.5,    1.5,   0.00,   0.00, 1006.7,   68.1, -999.0
19-02-2022, 00:15:30,    295,    2.0,    1.5,   0.00,   0.00, 1006.7,   68.3, -999.0
19-02-2022, 00:15:40,    246,    3.0,    1.5,   0.00,   0.00, 1006.7,   67.9, -999.0
19-02-2022, 00:15:50,    269,    4.2,    1.5,   0.00,   0.00, 1006.7,   68.0, -999.0
19-02-2022, 00:16:00,    265,    1.5,    1.4,   0.00,   0.00, 1006.7,   68.0, -999.0
19-02-2022, 00:16:10,    226,    6.5,    1.5,   0.00,   0.00, 1006.7,   68.3, -999.0
19-02-2022, 00:16:20,    253,    5.8,    1.5,   0.00,   0.00, 1006.7,   67.9, -999.0
19-02-2022, 00:16:30,    234,    6.4,    1.5,   0.00,   0.00, 1006.7,   68.0, -999.0
19-02-2022, 00:16:40,    264,    4.5,    1.5,   0.00,   0.00, 1006.7,   68.0, -999.0
19-02-2022, 00:16:50,    253,    2.6,    1.5,   0.00,   0.00, 1006.8,   68.0, -999.0
19-02-2022, 00:17:00,    222,    0.8,    1.4,   0.00,   0.00, 1006.7,   67.9, -999.0
19-02-2022, 00:17:10,    256,    1.3,    1.4,   0.00,   0.00, 1006.7,   67.9, -999.0
19-02-2022, 00:17:20,    253,    7.1,    1.4,   0.00,   0.00, 1006.8,   67.9, -999.0
19-02-2022, 00:17:30,    292,    6.0,    1.5,   0.00,   0.00, 1006.8,   68.3, -999.0
19-02-2022, 00:17:39,    262,    3.5,    1.4,   0.00,   0.00, 1006.8,   67.9, -999.0
19-02-2022, 00:17:50,    258,    2.2,    1.4,   0.00,   0.00, 1006.8,   67.8, -999.0
19-02-2022, 00:18:00,    254,    4.0,    1.4,   0.00,   0.00, 1006.8,   67.9, -999.0
19-02-2022, 00:18:09,    244,    4.2,    1.5,   0.00,   0.00, 1006.7,   67.7, -999.0
19-02-2022, 00:18:19,    257,    6.7,    1.5,   0.00,   0.00, 1006.8,   67.9, -999.0
19-02-2022, 00:18:30,    205,    4.1,    1.5,   0.00,   0.00, 1006.8,   67.9, -999.0
19-02-2022, 00:18:39,    241,    4.9,    1.5,   0.00,   0.00, 1006.8,   67.9, -999.0
19-02-2022, 00:18:49,    261,    2.6,    1.5,   0.00,   0.00, 1006.8,   67.8, -999.0
19-02-2022, 00:18:59,    252,    4.9,    1.5,   0.00,   0.00, 1006.8,   67.8, -999.0
19-02-2022, 00:19:09,    150,    3.3,    1.5,   0.00,   0.00, 1006.8,   67.7, -999.0
19-02-2022, 00:19:19,    240,    3.3,    1.5,   0.00,   0.00, 1006.8,   67.7, -999.0
19-02-2022, 00:19:29,    239,    1.7,    1.5,   0.00,   0.00, 1006.8,   67.8, -999.0
19-02-2022, 00:19:39,    209,    4.3,    1.5,   0.00,   0.00, 1006.8,   67.6, -999.0
19-02-2022, 00:19:49,    263,    3.8,    1.5,   0.00,   0.00, 1006.8,   67.7, -999.0
19-02-2022, 00:19:59,    163,    2.7,    1.5,   0.00,   0.00, 1006.8,   67.6, -999.0
19-02-2022, 00:20:09,    229,    4.5,    1.6,   0.00,   0.00, 1006.8,   67.5, -999.0
19-02-2022, 00:20:19,    254,    3.2,    1.5,   0.00,   0.00, 1006.8,   67.6, -999.0
19-02-2022, 00:20:29,    240,    6.4,    1.5,   0.00,   0.00, 1006.9,   67.6, -999.0
19-02-2022, 00:20:39,    296,    4.9,    1.5,   0.00,   0.00, 1006.9,   68.0, -999.0
19-02-2022, 00:20:48,    248,    2.8,    1.5,   0.00,   0.00, 1006.8,   67.9, -999.0
19-02-2022, 00:20:59,    272,    3.1,    1.5,   0.00,   0.00, 1006.9,   67.5, -999.0
19-02-2022, 00:21:09,    234,    5.5,    1.5,   0.00,   0.00, 1006.9,   67.5, -999.0
19-02-2022, 00:21:18,    235,    4.4,    1.5,   0.00,   0.00, 1006.9,   67.5, -999.0
19-02-2022, 00:21:28,    242,    3.8,    1.5,   0.00,   0.00, 1006.9,   67.5, -999.0
19-02-2022, 00:21:39,    204,    3.8,    1.5,   0.00,   0.00, 1006.9,   67.5, -999.0
19-02-2022, 00:21:48,    237,    1.8,    1.5,   0.00,   0.00, 1006.9,   67.5, -999.0
19-02-2022, 00:21:58,    234,    1.2,    1.4,   0.00,   0.00, 1006.8,   67.4, -999.0
19-02-2022, 00:22:08,    231,    1.0,    1.4,   0.00,   0.00, 1006.8,   67.5, -999.0
19-02-2022, 00:22:18,    229,    1.4,    1.4,   0.00,   0.00, 1006.9,   67.5, -999.0
19-02-2022, 00:22:28,    231,    4.6,    1.5,   0.00,   0.00, 1006.9,   67.7, -999.0
19-02-2022, 00:22:38,    182,    6.1,    1.5,   0.00,   0.00, 1006.9,   67.5, -999.0
19-02-2022, 00:22:48,    302,    3.1,    1.5,   0.00,   0.00, 1006.9,   67.6, -999.0
19-02-2022, 00:22:58,    226,    3.1,    1.5,   0.00,   0.00, 1006.9,   67.8, -999.0
19-02-2022, 00:23:08,    257,    1.3,    1.5,   0.00,   0.00, 1006.8,   67.8, -999.0
19-02-2022, 00:23:18,    234,    3.9,    1.5,   0.00,   0.00, 1006.9,   67.4, -999.0
19-02-2022, 00:23:28,    251,    4.3,    1.5,   0.00,   0.00, 1006.9,   67.5, -999.0
19-02-2022, 00:23:38,    304,    6.9,    1.5,   0.00,   0.00, 1006.9,   67.5, -999.0
19-02-2022, 00:23:48,    247,    2.6,    1.4,   0.00,   0.00, 1006.9,   67.5, -999.0
19-02-2022, 00:23:57,    237,    4.2,    1.5,   0.00,   0.00, 1006.9,   67.6, -999.0
19-02-2022, 00:24:08,    259,    4.9,    1.5,   0.00,   0.00, 1006.9,   67.7, -999.0
19-02-2022, 00:24:18,    210,    6.0,    1.5,   0.00,   0.00, 1006.9,   67.6, -999.0
19-02-2022, 00:24:27,    226,    1.0,    1.4,   0.00,   0.00, 1006.8,   67.6, -999.0
19-02-2022, 00:24:37,    251,    1.3,    1.3,   0.00,   0.00, 1006.9,   67.5, -999.0
19-02-2022, 00:24:47,    269,    1.6,    1.4,   0.00,   0.00, 1006.9,   67.7, -999.0
19-02-2022, 00:24:57,    243,    2.8,    1.5,   0.00,   0.00, 1006.9,   67.5, -999.0
19-02-2022, 00:25:07,    254,    3.6,    1.5,   0.00,   0.00, 1006.9,   67.6, -999.0
19-02-2022, 00:25:17,    231,    2.4,    1.5,   0.00,   0.00, 1006.9,   67.7, -999.0
19-02-2022, 00:25:27,    258,    1.2,    1.4,   0.00,   0.00, 1006.9,   67.7, -999.0
19-02-2022, 00:25:37,    258,    4.0,    1.5,   0.00,   0.00, 1007.0,   67.6, -999.0
19-02-2022, 00:25:47,    245,    5.1,    1.5,   0.00,   0.00, 1007.0,   67.6, -999.0
19-02-2022, 00:25:57,    248,    2.2,    1.4,   0.00,   0.00, 1007.0,   67.8, -999.0
19-02-2022, 00:26:07,    261,    2.4,    1.4,   0.00,   0.00, 1007.0,   67.9, -999.0
19-02-2022, 00:26:17,    241,    5.9,    1.4,   0.00,   0.00, 1007.0,   67.6, -999.0
19-02-2022, 00:26:27,    251,    5.0,    1.4,   0.00,   0.00, 1007.0,   67.6, -999.0
19-02-2022, 00:26:37,    289,    4.3,    1.3,   0.00,   0.00, 1007.0,   67.6, -999.0
19-02-2022, 00:26:47,    252,    4.7,    1.4,   0.00,   0.00, 1007.0,   67.7, -999.0
19-02-2022, 00:26:57,    257,    3.3,    1.4,   0.00,   0.00, 1007.0,   67.8, -999.0
19-02-2022, 00:27:07,    254,    3.6,    1.5,   0.00,   0.00, 1007.0,   67.6, -999.0
19-02-2022, 00:27:17,    285,    5.9,    1.4,   0.00,   0.00, 1007.0,   67.6, -999.0
19-02-2022, 00:27:26,    241,    3.9,    1.4,   0.00,   0.00, 1007.0,   67.7, -999.0
19-02-2022, 00:27:36,    244,    8.0,    1.5,   0.00,   0.00, 1007.0,   67.5, -999.0
19-02-2022, 00:27:47,    267,    3.2,    1.5,   0.00,   0.00, 1006.9,   67.8, -999.0
19-02-2022, 00:27:56,    266,    3.5,    1.5,   0.00,   0.00, 1006.9,   67.7, -999.0
19-02-2022, 00:28:06,    250,    1.9,    1.4,   0.00,   0.00, 1006.9,   67.6, -999.0
19-02-2022, 00:28:16,    202,    2.1,    1.5,   0.00,   0.00, 1006.9,   67.6, -999.0
19-02-2022, 00:28:26,    255,    4.4,    1.5,   0.00,   0.00, 1006.9,   67.9, -999.0
19-02-2022, 00:28:36,    232,    6.2,    1.5,   0.00,   0.00, 1006.9,   67.5, -999.0
19-02-2022, 00:28:46,    258,    4.7,    1.4,   0.00,   0.00, 1006.9,   67.5, -999.0
19-02-2022, 00:28:56,    247,    2.9,    1.5,   0.00,   0.00, 1006.9,   67.5, -999.0
19-02-2022, 00:29:06,    263,    2.0,    1.5,   0.00,   0.00, 1006.9,   67.6, -999.0
19-02-2022, 00:29:16,    235,    3.6,    1.5,   0.00,   0.00, 1006.9,   67.5, -999.0
19-02-2022, 00:29:26,    250,    4.0,    1.4,   0.00,   0.00, 1006.9,   67.4, -999.0
19-02-2022, 00:29:36,    290,    2.1,    1.4,   0.00,   0.00, 1006.8,   67.5, -999.0
19-02-2022, 00:29:46,    261,    3.2,    1.4,   0.00,   0.00, 1006.9,   67.5, -999.0
19-02-2022, 00:29:56,    223,    1.2,    1.4,   0.00,   0.00, 1006.9,   67.5, -999.0
19-02-2022, 00:30:05,    222,    3.0,    1.4,   0.00,   0.00, 1007.0,   67.6, -999.0
19-02-2022, 00:30:16,    257,    3.5,    1.5,   0.00,   0.00, 1006.9,   67.6, -999.0
19-02-2022, 00:30:26,    282,    4.2,    1.5,   0.00,   0.00, 1006.9,   67.6, -999.0
19-02-2022, 00:30:35,    243,    5.1,    1.4,   0.00,   0.00, 1006.9,   67.7, -999.0
19-02-2022, 00:30:45,    237,    5.0,    1.4,   0.00,   0.00, 1006.9,   67.8, -999.0
19-02-2022, 00:30:56,    297,    6.8,    1.3,   0.00,   0.00, 1007.0,   68.0, -999.0
19-02-2022, 00:31:05,    268,    4.0,    1.4,   0.00,   0.00, 1006.9,   68.0, -999.0
19-02-2022, 00:31:15,    205,    3.0,    1.4,   0.00,   0.00, 1006.9,   67.8, -999.0
19-02-2022, 00:31:26,    253,    2.9,    1.5,   0.00,   0.00, 1006.9,   67.7, -999.0
19-02-2022, 00:31:35,    213,    3.0,    1.4,   0.00,   0.00, 1006.9,   67.7, -999.0
19-02-2022, 00:31:45,    248,    5.0,    1.4,   0.00,   0.00, 1006.9,   67.7, -999.0
19-02-2022, 00:31:55,    253,    2.6,    1.4,   0.00,   0.00, 1006.8,   67.6, -999.0
19-02-2022, 00:32:05,    216,    2.6,    1.4,   0.00,   0.00, 1006.8,   68.1, -999.0
19-02-2022, 00:32:15,    206,    0.5,    1.4,   0.00,   0.00, 1006.8,   67.8, -999.0
19-02-2022, 00:32:25,    234,    3.3,    1.4,   0.00,   0.00, 1006.8,   67.8, -999.0
19-02-2022, 00:32:35,    248,    3.4,    1.4,   0.00,   0.00, 1006.8,   67.5, -999.0
19-02-2022, 00:32:45,    259,    1.4,    1.4,   0.00,   0.00, 1006.8,   67.5, -999.0
19-02-2022, 00:32:55,    248,    2.7,    1.4,   0.00,   0.00, 1006.8,   67.5, -999.0
19-02-2022, 00:33:05,    264,    4.2,    1.5,   0.00,   0.00, 1006.8,   67.7, -999.0
19-02-2022, 00:33:15,    273,    3.5,    1.4,   0.00,   0.00, 1006.9,   67.4, -999.0
19-02-2022, 00:33:25,    265,    2.9,    1.4,   0.00,   0.00, 1006.8,   67.5, -999.0
19-02-2022, 00:33:35,    239,    1.6,    1.4,   0.00,   0.00, 1006.9,   67.6, -999.0
19-02-2022, 00:33:44,    269,    1.9,    1.2,   0.00,   0.00, 1006.8,   67.5, -999.0
19-02-2022, 00:33:55,    227,    4.9,    1.4,   0.00,   0.00, 1006.8,   67.6, -999.0
19-02-2022, 00:34:05,    263,    3.2,    1.4,   0.00,   0.00, 1006.9,   67.7, -999.0
19-02-2022, 00:34:14,    236,    4.7,    1.4,   0.00,   0.00, 1006.8,   67.7, -999.0
19-02-2022, 00:34:24,    250,    4.5,    1.5,   0.00,   0.00, 1006.8,   67.7, -999.0
19-02-2022, 00:34:34,    238,    4.4,    1.4,   0.00,   0.00, 1006.8,   67.7, -999.0
19-02-2022, 00:34:44,    230,    4.5,    1.4,   0.00,   0.00, 1006.9,   67.8, -999.0
19-02-2022, 00:34:54,    242,    3.8,    1.4,   0.00,   0.00, 1006.8,   67.8, -999.0
19-02-2022, 00:35:04,    262,    3.3,    1.4,   0.00,   0.00, 1006.8,   67.9, -999.0
19-02-2022, 00:35:14,    244,    1.8,    1.5,   0.00,   0.00, 1006.8,   67.7, -999.0
19-02-2022, 00:35:24,    236,    2.3,    1.4,   0.00,   0.00, 1006.9,   67.7, -999.0
19-02-2022, 00:35:34,    234,    4.5,    1.5,   0.00,   0.00, 1006.8,   67.7, -999.0
19-02-2022, 00:35:44,    247,    5.1,    1.5,   0.00,   0.00, 1006.8,   67.7, -999.0
19-02-2022, 00:35:54,    230,    4.9,    1.4,   0.00,   0.00, 1006.9,   67.7, -999.0
19-02-2022, 00:36:04,    244,    3.2,    1.5,   0.00,   0.00, 1006.8,   67.8, -999.0
19-02-2022, 00:36:14,    251,    1.0,    1.4,   0.00,   0.00, 1006.8,   67.6, -999.0
19-02-2022, 00:36:24,    228,    5.0,    1.4,   0.00,   0.00, 1006.9,   67.8, -999.0
19-02-2022, 00:36:34,    236,    4.6,    1.4,   0.00,   0.00, 1006.9,   67.8, -999.0
19-02-2022, 00:36:44,    220,    3.3,    1.5,   0.00,   0.00, 1006.9,   67.7, -999.0
19-02-2022, 00:36:53,    191,    3.5,    1.4,   0.00,   0.00, 1006.8,   67.7, -999.0
19-02-2022, 00:37:04,    249,    2.2,    1.4,   0.00,   0.00, 1006.8,   67.6, -999.0
19-02-2022, 00:37:13,    252,    4.5,    1.4,   0.00,   0.00, 1006.9,   67.6, -999.0
19-02-2022, 00:37:23,    240,    3.1,    1.4,   0.00,   0.00, 1006.9,   67.6, -999.0
19-02-2022, 00:37:34,    229,    4.7,    1.4,   0.00,   0.00, 1006.9,   67.7, -999.0
19-02-2022, 00:37:43,    260,    5.2,    1.4,   0.00,   0.00, 1006.8,   67.6, -999.0
19-02-2022, 00:37:53,    245,    8.5,    1.4,   0.00,   0.00, 1006.8,   67.6, -999.0
19-02-2022, 00:38:03,    269,    4.1,    1.4,   0.00,   0.00, 1006.8,   67.8, -999.0
19-02-2022, 00:38:13,    281,    2.3,    1.5,   0.00,   0.00, 1006.8,   67.6, -999.0
19-02-2022, 00:38:23,    266,    0.6,    1.3,   0.00,   0.00, 1006.8,   67.6, -999.0
19-02-2022, 00:38:33,    249,    2.5,    1.4,   0.00,   0.00, 1006.8,   67.6, -999.0
19-02-2022, 00:38:43,    264,    3.7,    1.4,   0.00,   0.00, 1006.8,   67.6, -999.0
19-02-2022, 00:38:53,    210,    2.2,    1.4,   0.00,   0.00, 1006.8,   67.5, -999.0
19-02-2022, 00:39:03,    217,    0.3,    1.4,   0.00,   0.00, 1006.8,   67.5, -999.0
19-02-2022, 00:39:13,    236,    2.1,    1.4,   0.00,   0.00, 1006.8,   67.7, -999.0
19-02-2022, 00:39:23,    260,    3.8,    1.4,   0.00,   0.00, 1006.8,   67.7, -999.0
19-02-2022, 00:39:33,    158,    4.1,    1.4,   0.00,   0.00, 1006.8,   67.7, -999.0
19-02-2022, 00:39:43,    283,    2.5,    1.4,   0.00,   0.00, 1006.8,   67.6, -999.0
19-02-2022, 00:39:52,    250,    1.1,    1.4,   0.00,   0.00, 1006.8,   67.6, -999.0
19-02-2022, 00:40:03,    249,    0.6,    1.4,   0.00,   0.00, 1006.8,   67.6, -999.0
19-02-2022, 00:40:13,    250,    0.0,    1.3,   0.00,   0.00, 1006.7,   67.4, -999.0
19-02-2022, 00:40:22,    205,    1.0,    1.4,   0.00,   0.00, 1006.8,   67.7, -999.0
19-02-2022, 00:40:32,    249,    2.4,    1.4,   0.00,   0.00, 1006.8,   67.8, -999.0
19-02-2022, 00:40:43,    224,    4.1,    1.4,   0.00,   0.00, 1006.8,   67.9, -999.0
19-02-2022, 00:40:52,    197,    5.3,    1.4,   0.00,   0.00, 1006.9,   67.6, -999.0
19-02-2022, 00:41:02,    238,    4.9,    1.4,   0.00,   0.00, 1006.8,   67.7, -999.0
19-02-2022, 00:41:12,    254,    4.7,    1.4,   0.00,   0.00, 1006.9,   67.7, -999.0
19-02-2022, 00:41:22,    243,    3.8,    1.5,   0.00,   0.00, 1006.8,   67.5, -999.0
19-02-2022, 00:41:32,    218,    5.1,    1.4,   0.00,   0.00, 1006.8,   67.6, -999.0
19-02-2022, 00:41:42,    294,    4.9,    1.5,   0.00,   0.00, 1006.8,   67.6, -999.0
19-02-2022, 00:41:52,    244,    4.6,    1.5,   0.00,   0.00, 1006.8,   67.6, -999.0
19-02-2022, 00:42:02,    243,    4.5,    1.4,   0.00,   0.00, 1006.8,   67.7, -999.0
19-02-2022, 00:42:12,    246,    3.4,    1.4,   0.00,   0.00, 1006.8,   67.6, -999.0
19-02-2022, 00:42:22,    219,    2.4,    1.4,   0.00,   0.00, 1006.9,   67.6, -999.0
19-02-2022, 00:42:32,    223,    5.0,    1.5,   0.00,   0.00, 1006.9,   67.6, -999.0
19-02-2022, 00:42:42,    194,    5.4,    1.5,   0.00,   0.00, 1006.8,   67.6, -999.0
19-02-2022, 00:42:52,    215,    3.2,    1.4,   0.00,   0.00, 1006.8,   67.6, -999.0
19-02-2022, 00:43:01,    241,    3.3,    1.5,   0.00,   0.00, 1006.9,   67.6, -999.0
19-02-2022, 00:43:12,    248,    3.2,    1.4,   0.00,   0.00, 1006.8,   67.4, -999.0
19-02-2022, 00:43:22,    261,    5.7,    1.4,   0.00,   0.00, 1006.8,   67.5, -999.0
19-02-2022, 00:43:31,    235,    5.0,    1.5,   0.00,   0.00, 1006.8,   67.5, -999.0
19-02-2022, 00:43:41,    213,    3.9,    1.5,   0.00,   0.00, 1006.8,   67.5, -999.0
19-02-2022, 00:43:52,    217,    2.8,    1.5,   0.00,   0.00, 1006.8,   67.5, -999.0
19-02-2022, 00:44:01,    239,    1.9,    1.5,   0.00,   0.00, 1006.8,   67.5, -999.0
19-02-2022, 00:44:11,    221,    4.2,    1.5,   0.00,   0.00, 1006.9,   67.6, -999.0
19-02-2022, 00:44:21,    328,    5.5,    1.4,   0.00,   0.00, 1006.8,   67.5, -999.0
19-02-2022, 00:44:31,    227,    1.7,    1.5,   0.00,   0.00, 1006.8,   67.5, -999.0
19-02-2022, 00:44:41,    199,    6.2,    1.5,   0.00,   0.00, 1006.8,   67.5, -999.0
19-02-2022, 00:44:51,    251,    5.6,    1.5,   0.00,   0.00, 1006.9,   67.5, -999.0
19-02-2022, 00:45:01,    239,    3.1,    1.5,   0.00,   0.00, 1006.9,   67.4, -999.0
19-02-2022, 00:45:11,    234,    3.0,    1.5,   0.00,   0.00, 1006.9,   67.2, -999.0
19-02-2022, 00:45:21,    192,    5.8,    1.3,   0.00,   0.00, 1006.9,   67.5, -999.0
19-02-2022, 00:45:31,    277,    5.7,    1.4,   0.00,   0.00, 1006.9,   67.2, -999.0
19-02-2022, 00:45:41,    250,    3.4,    1.5,   0.00,   0.00, 1006.8,   67.0, -999.0
19-02-2022, 00:45:51,    289,    3.7,    1.5,   0.00,   0.00, 1006.8,   67.1, -999.0
19-02-2022, 00:46:01,    247,    5.2,    1.5,   0.00,   0.00, 1006.8,   67.2, -999.0
19-02-2022, 00:46:12,    199,    5.4,    1.5,   0.00,   0.00, 1006.8,   67.1, -999.0
19-02-2022, 00:46:21,    200,    0.8,    1.5,   0.00,   0.00, 1006.8,   67.1, -999.0
19-02-2022, 00:46:30,    181,    0.6,    1.4,   0.00,   0.00, 1006.7,   67.3, -999.0
19-02-2022, 00:46:40,    177,    0.1,    1.4,   0.00,   0.00, 1006.7,   67.0, -999.0